NOAA 16 DEB, 41280

Orbit data source: Space-Track

NOAA 16 DEB, 41280 is space debris in SSO originally from a launch on Thu, 21 Sep 2000 UTC launched from the Air Force Western Test Range (AFWTR). Debris objects in space refer to the collection of defunct objects orbiting the Earth. Examples of debris include non-operational satellites, rocket bodies, and fragments generated from explosions, collisions, or faulty payload assembly.

Loading next visibility...
Identifier
41280, 2000-055GG
Orbit
SSO
Country
Flag of USUS
Related business
Manufacturer
Unknown
Mission
Spacecraft
Bus & Motor
Unknown
Mass
Unknown
Launch date (UTC)
2000-09-21 (26 years ago)
Launch vehicle
Unknown
Launch site
Air Force Western Test Range (AFWTR)
Object type
Payload
Rocket body
Debris
Shape & HBR
Unknown shape, 0.1 m
Radar Cross Section
Medium (>0.1 m² and <1 m²)

Expand to show TLE details & history
Last TLE update: 2 days ago

TLE from 2 days ago
0 NOAA 16 DEB
1 41280U 00055GG  26262.28057602  .00001992  00000-0  91483-3 0  9992
2 41280  98.6694 263.6609 0026151 284.8852  74.9430 14.22191448552637
Epoch: 2026-09-19T06:44Z
TLE epoch observation values (Epoch: 2026-09-19T06:44:01.768Z)
Latitude
-0.00001°
Longitude
164.46216°
Altitude
816.026 km
Speed
7.448 km/s
True Right ascension
17h 34m 38s
True Declination
0° 00' 00"
Sunlit
Object was in daylight at epoch
Visualization orbit readout
Latitude
Unknown
Longitude
Unknown
Altitude
Unknown
Speed
Unknown
Apparent Right ascension
Unknown
Apparent Declination
Unknown
Sunlit
N/A
Visualization observer readout
Local Sidereal Time
12:45:48
Azimuth
Unknown
Elevation
Unknown
Doppler factor
Unknown
Orbital elements
Apogee altitude
833.916 km
Perigee altitude
796.294 km
Semi-major axis
7,193.242 km
Eccentricity
0.00262
Inclination
98.6694°
RAAN
263.6609°
Arg. of periapsis
284.8852°
True anomaly
75.23262°
Mean anomaly
74.943°
Eccentric anomaly
75.08779°
Mean motion
3.55759 °/min
Orbital period
101.19 mins
BSTAR
0.00091483
Loading maneuver chart data...
Computing Atmospheric mass density...
Loading historical data...
Loading historical data...
Loading historical data...
Loading historical data...
Loading historical data...
Loading historical data...
Loading historical data...

Documentation

Showing up to 5 results
|